Location: Dead Woman Crossing
(43.5369°N, 106.3228°W)
Time: 09:51:48
(UTC+00:00)

STRAND 1 - Visible Passes

Search period start: 29 June 2022 00:00
Search period end: 09 July 2022 00:00
Orbit: 768 x 780 km, 98.4° (Epoch: 28 June)

Date Brightness Start Highest point End Pass type
(mag) Time Alt. Az. Time Alt. Az. Time Alt. Az.
29 Jun ? 04:11:39 10° NW 04:11:50 10° NW 04:12:01 10° WNW visible
30 Jun ? 03:34:32 10° NNW 03:38:09 20° WNW 03:41:44 10° WSW visible
02 Jul ? 04:07:20 10° NW 04:08:30 11° NW 04:09:41 10° WNW visible
03 Jul ? 03:31:03 10° NNW 03:34:47 21° WNW 03:38:31 10° WSW visible
05 Jul ? 04:03:32 10° NW 04:05:10 11° WNW 04:06:48 10° WNW visible
06 Jul ? 03:27:34 10° NNW 03:31:26 22° WNW 03:35:18 10° WSW visible
08 Jul ? 03:59:50 10° NW 04:01:50 12° WNW 04:03:49 10° W visible
